Location: Austin
(30.3000°N, 97.7500°W)
Time: 00:06:56
(UTC-05:00)

Cosmos 2173 Rocket - Pass Details

Date: 06 May 2026
Orbit: 944 x 999 km, 83.0° (Epoch: 13 May)

Event Time Altitude Azimuth Distance (km) Brightness Sun altitude
Exits shadow 22:30:26 20° 207° (SSW) 2,007 5.5 -26.5°
Maximum altitude 22:34:31 55° 278° (W) 1,128 4.5 -27.1°
Drops below altitude 10° 22:40:31 10° 355° (N) 2,690 6.9 -28.1°
Sets 22:43:06 0° 0° (N) 3,647 7.6 -28.5°
